STARLINK-1564, 46058

Orbit data source: Space-Track

STARLINK-1564, 46058 is a payload satellite owned by SpaceX/Seattle (US) in LEO that was launched on Fri, 07 Aug 2020 UTC via an FALCON 9 launch vehicle from the Air Force Eastern Test Range (AFETR). Payload-class satellites include a variety of spacecraft equipped with specific instruments for various scientific and technological missions. These include communications satellites like Starlink; space stations such as the ISS; scientific satellites like the Hubble; Earth observation satellites from companies like Planet Labs, Umbra, and HawkEye 360; GPS; miniature CubeSats for education and research; and military/defense satellites.

Loading next visibility...
Identifier
46058, 2020-055AH
Orbit
LEO
Last TLE update
10 hours ago
Origin
Manufacturer
SpaceX/Seattle
Mission
Operational Commercial Communications
Bus & Motor
STARLINK, Unknown motor
Mass
260 kg wet, ~248 kg dry
Launch date (UTC)
2020-08-07 (5 years ago)
Launch vehicle
FALCON 9
Launch site
Air Force Eastern Test Range (AFETR)
Object type
Payload
Rocket body
Debris
Shape & HBR
Box + 1 Pan, 8.86 m
Radar Cross Section
13.562 m², Large (>1 m²)

Expand to show TLE details & history

TLE from 10 hours ago
0 STARLINK-1564
1 46058U 20055AH  25115.22785807  .00003081  00000-0  22562-3 0  9990
2 46058  53.0537 106.7127 0001938  81.3799 278.7409 15.06408167260496
Epoch: 2025-04-25T05:28Z
Definitive object data (Epoch: 2025-04-25T05:28:06.937Z)
Latitude
-0.00005°
Longitude
171.1958°
Altitude
547.862 km
Speed
7.589 km/s
True Right ascension
07h 06m 51s
True Declination
0° 00' 00"
Sunlit
Object was in daylight at TLE epoch
Visualization TLE readout
Latitude
-5.3544°
Longitude
-6.72614°
Altitude
549.23 km
Speed
7.588 km/s
Apparent Right ascension
16h 18m 57s
Apparent Declination
-38° 21' 27"
Sunlit
Object is in daylight
Visualization observer readout
Local Sidereal Time
23:06:00
Azimuth
244.063° WSW
Elevation
-31.386°
Doppler factor
1
Orbital elements
Apogee altitude
548.8 km
Perigee altitude
546.115 km
Semi-major axis
6,925.594 km
Eccentricity
0.0001938
Inclination
53.0537°
RAAN
106.7127°
Arg. of periapsis
81.3799°
True anomaly
278.71895°
Mean anomaly
278.7409°
Eccentric anomaly
278.72992°
Mean motion
3.7658 °/min
BSTAR
0.00022562
Orbital period
95.6 mins
Loading maneuver chart data...
Loading SW <> Apogee altitude chart data...
Loading historical data...
Loading historical data...
Loading historical data...
Loading historical data...
Loading historical data...
Loading historical data...
Loading historical data...

STARLINK-1564 Visibility forecast

Observer location: undefined°, undefined°

Span
Click to sort rows by Start time (UTC) header in descending order
Start Az.
Max El. time (UTC)
Max El. Az.
Max El.
End time (UTC)
End Az.
4 mins2025-04-26 00:43:49.282Z157.711° S2025-04-26 00:45:49.282Z125.046° SE15.596°2025-04-26 00:47:49.282Z93.202° ESE
7 mins2025-04-26 02:21:49.282Z240.688° WSW2025-04-26 02:24:49.282Z320.184° NNW42.97°2025-04-26 02:28:49.282Z46.102° ENE
4 mins2025-04-26 04:03:49.282Z319.869° NNW2025-04-26 04:04:49.282Z338.563° N17.623°2025-04-26 04:07:49.282Z26.425° NE
5 mins2025-04-26 07:24:49.282Z348.498° N2025-04-26 07:26:49.282Z31.353° NE22.1°2025-04-26 07:29:49.282Z79.368° E
6 mins2025-04-26 09:03:49.282Z302.001° NW2025-04-26 09:06:49.282Z178.452° S41.521°2025-04-26 09:09:49.282Z140.68° SSE
|